Location: Saint Louis
(38.6272°N, 90.1978°W)
Time: 02:27:17
(UTC-05:00)

Hubble Space Telescope - Visible Passes

Search period start: 26 May 2017 00:00
Search period end: 05 June 2017 00:00
Orbit: 538 x 542 km, 28.5° (Epoch: 25 May)

Date Brightness Start Highest point End Pass type
(mag) Time Alt. Az. Time Alt. Az. Time Alt. Az.
28 May 2.7 21:14:53 10° S 21:16:34 12° SSE 21:17:02 12° SSE visible
29 May 2.7 21:04:12 10° SSW 21:06:22 14° SSE 21:08:03 11° SE visible
30 May 2.6 20:53:41 10° SSW 20:56:11 16° SSE 20:58:43 10° SE visible
30 May 3.1 22:33:44 10° SW 22:34:15 12° SW 22:34:15 12° SW visible
31 May 2.8 22:23:37 10° SW 22:24:54 15° SW 22:24:54 15° SW visible
01 Jun 2.6 22:13:33 10° SW 22:15:27 17° SSW 22:15:27 17° SSW visible
02 Jun 2.6 22:03:32 10° SW 22:05:55 17° SSW 22:05:55 17° SSW visible
03 Jun 2.6 21:53:35 10° SW 21:56:06 16° SSW 21:56:19 16° S visible
04 Jun 2.7 21:43:44 10° SW 21:45:56 14° SSW 21:46:42 13° S visible
